Location: Mahannah Oil Field
(37.4664°N, 96.6003°W)
Time: 14:37:23
(UTC+00:00)

A-11 Canister half - Pass Details

Date: 24 January 2021
Orbit: 1525 x 1684 km, 47.3° (Epoch: 05 March)

Event Time Altitude Azimuth Distance (km) Brightness Sun altitude
Rises 02:54:52 0° 301° (WNW) 4,767 12.3 -38.3°
Reaches altitude 10° 02:57:55 10° 302° (WNW) 3,801 11.6 -38.9°
Enters shadow 03:06:20 72° 302° (WNW) 1,698 9.1 -40.6°
